Location: North Bay
(46.3091°N, 79.4608°W)
Time: 15:51:46
(UTC-05:00)

N. Korean satellite - Pass Details

Date: 25 October 2019
Orbit: 456 x 506 km, 97.2° (Epoch: 22 November)

Event Time Altitude Azimuth Distance (km) Brightness Sun altitude
Rises 18:41:36 0° 181° (S) 2,467 10.3 -5.4°
Reaches altitude 10° 18:43:41 10° 188° (S) 1,603 9.5 -5.7°
Maximum altitude 18:46:59 43° 261° (W) 664 8.0 -6.3°
Drops below altitude 10° 18:50:21 10° 335° (NNW) 1,636 9.4 -6.9°
Sets 18:52:30 0° 342° (NNW) 2,527 10.3 -7.2°
